Volver al catálogo

COSMOS 2150

ActivoNavegaciónLEO
NORAD 21418·PAYLOAD·🇷🇺 Russia

Lanzado Jun 11, 1991 desde Plesetsk Cosmodrome

Loading…

Próximos Pases (próximas 24 horas)

TLE

ActualizadoSource: Space-Track

Época: Sep 14, 2026, 13:38 UTC

1 21418U 91041A   26257.56837484  .00000073  00000-0  36370-4 0  9991
2 21418  74.0367 309.2105 0015826  74.9581 285.3320 14.32666345841782

Sigue COSMOS 2150 en tiempo real con AllMySat

Download on the App Store